Powrót do katalogu

TITAN 3C TRANSTAGE DEB

AktywnyHEO
NORAD 13957·DEBRIS·🇺🇸 United States

Wystrzelony Dec 21, 1965 z Cape Canaveral Space Force Station

Loading…

Następne Przeloty (najbliższe 24 godziny)

TLE

ŚwieżeSource: Space-Track

Epoka: Sep 12, 2026, 12:07 UTC

1 13957U 65108W   26255.50546550  .00000025  00000-0  77158-3 0  9993
2 13957  26.3354 183.4948 6731183 325.8766 329.5059  2.80452601389598

Śledź TITAN 3C TRANSTAGE DEB w czasie rzeczywistym z AllMySat

Download on the App Store